Location: ???????????
(54.5822°N, 39.1075°E)
Time: 03:38:52
(UTC+00:00)

Cosmos 1500 Rocket - Pass Details

Date: 19 May 2025
Orbit: 598 x 623 km, 82.5° (Epoch: 15 June)

Event Time Altitude Azimuth Distance (km) Brightness Sun altitude
Rises 21:07:56 0° 344° (NNW) 2,879 8.6 -15.4°
Reaches altitude 10° 21:10:12 10° 339° (NNW) 1,974 7.3 -15.4°
Maximum altitude 21:14:23 47° 266° (W) 812 4.1 -15.4°
Enters shadow 21:16:38 25° 204° (SSW) 1,261 4.6 -15.4°
